INTELSAT 37E (IS-37E) (42950 NORAD) Tracking and Keplerian Element Data

This shows tracking and keplerian element data for the satellite.

Feedback or suggestion? Click here.




ElementValue
Catalog42950
NameINTELSAT 37E (IS-37E)
Epoch Orbit555
Epoch Day81.86418896
Epoch Year2019
RAAN175.1708
Inclination0.0152
Eccentricity0.0002344
Argument of Perigee202.4007
Mean Anonmoly95.5748
Mean Motion1.00271881
Decay Rate-1.65E-06
L11 42950U 17059A 19081.86418896 -.00000165 00000-0 00000-0 0 9994
L22 42950 0.0152 175.1708 0002344 202.4007 95.5748 1.00271881 5558

Live tracking and technical data element details for INTELSAT 37E (IS-37E) (NORAD 42950). INTELSAT 37E (IS-37E) can be tracked NOW for your location showing map with azimuth and elevation plus other details from your city location.

Track the satellite on the map from your city or location and see movement details for azimuth, elevation, latitude, longitude, range, height, and movement on the map or in text.







IsCatalogInMostPopularTable: catalog: 42950, numindb: 406
Update: records affected: 1



GetName: 42950 INTELSAT 37E (IS-37E)

Hit Count: updated at: Sun, 24 Mar 2019 08:38:20 GMT